When you browse on this site, cookies collect data to enhance your experience and personalize the content and advertising you see.
Visit our Privacy Policy to learn more. By continuing to use the site, you agree to this use of cookies and data.
  • In Portugal
  • List of Countries
  • For 7 days
  • Water Temperature
  • Weather Map
  • Weather Widgets
  • user-avatar
    Login

    Hourly Weather Moron de la Frontera

    Today, 23 August, Friday

    Time Temperature Precipitation Wind Pressure Humidity
    00:00 +24°C° 0 mm 2 mps 745 mmHg 65%
    01:00 +23°C° 0 mm 2 mps 745 mmHg 66%
    02:00 +23°C° 0 mm 2 mps 745 mmHg 66%
    03:00 +21°C° 0 mm 2 mps 745 mmHg 67%
    04:00 +21°C° 0 mm 2 mps 745 mmHg 66%
    05:00 +20°C° 0 mm 2 mps 745 mmHg 66%
    06:00 +20°C° 0 mm 3 mps 745 mmHg 68%
    07:00 +23°C° 0 mm 4 mps 745 mmHg 55%
    08:00 +28°C° 0 mm 4 mps 746 mmHg 41%
    09:00 +32°C° 0 mm 5 mps 746 mmHg 28%
    10:00 +34°C° 0 mm 5 mps 746 mmHg 25%
    11:00 +36°C° 0 mm 5 mps 746 mmHg 22%
    12:00 +39°C° 0 mm 5 mps 746 mmHg 19%
    13:00 +40°C° 0 mm 4 mps 745 mmHg 18%
    14:00 +40°C° 0 mm 4 mps 745 mmHg 17%
    15:00 +41°C° 0 mm 4 mps 744 mmHg 16%
    16:00 +38°C° 0 mm 4 mps 744 mmHg 18%
    17:00 +37°C° 0 mm 4 mps 744 mmHg 20%
    18:00 +36°C° 0 mm 4 mps 743 mmHg 22%
    19:00 +33°C° 0 mm 4 mps 744 mmHg 28%
    20:00 +29°C° 0 mm 3 mps 744 mmHg 35%
    21:00 +25°C° 0 mm 3 mps 744 mmHg 42%
    22:00 +24°C° 0 mm 3 mps 745 mmHg 45%
    23:00 +24°C° 0 mm 2 mps 745 mmHg 49%

    Tomorrow, 24 August, Saturday

    Time Temperature Precipitation Wind Pressure Humidity
    00:00 +23°C° 0 mm 2 mps 745 mmHg 52%
    01:00 +21°C° 0 mm 2 mps 745 mmHg 52%
    02:00 +21°C° 0 mm 2 mps 745 mmHg 53%
    03:00 +21°C° 0 mm 2 mps 745 mmHg 53%
    04:00 +21°C° 0 mm 2 mps 745 mmHg 52%
    05:00 +20°C° 0 mm 2 mps 745 mmHg 51%
    06:00 +20°C° 0 mm 2 mps 744 mmHg 51%
    07:00 +24°C° 0 mm 2 mps 745 mmHg 42%
    08:00 +28°C° 0 mm 2 mps 745 mmHg 33%
    09:00 +31°C° 0 mm 2 mps 745 mmHg 24%
    10:00 +34°C° 0 mm 3 mps 745 mmHg 21%
    11:00 +36°C° 0 mm 3 mps 745 mmHg 19%
    12:00 +38°C° 0 mm 3 mps 745 mmHg 16%
    13:00 +39°C° 0 mm 3 mps 744 mmHg 16%
    14:00 +39°C° 0 mm 3 mps 744 mmHg 15%
    15:00 +40°C° 0 mm 3 mps 744 mmHg 14%
    16:00 +39°C° 0 mm 3 mps 743 mmHg 16%
    17:00 +38°C° 0 mm 4 mps 743 mmHg 18%
    18:00 +37°C° 0 mm 4 mps 743 mmHg 20%
    19:00 +33°C° 0 mm 3 mps 743 mmHg 28%
    20:00 +29°C° 0 mm 3 mps 744 mmHg 36%
    21:00 +25°C° 0 mm 2 mps 744 mmHg 43%
    22:00 +24°C° 0 mm 2 mps 744 mmHg 48%
    23:00 +23°C° 0 mm 2 mps 744 mmHg 52%

    Day after tomorrow, 25 August, Sunday

    Time Temperature Precipitation Wind Pressure Humidity
    00:00 +22°C° 0 mm 1 mps 744 mmHg 56%
    01:00 +22°C° 0 mm 1 mps 744 mmHg 55%
    02:00 +22°C° 0 mm 1 mps 744 mmHg 54%
    03:00 +21°C° 0 mm 1 mps 744 mmHg 53%
    04:00 +21°C° 0 mm 1 mps 744 mmHg 54%
    05:00 +21°C° 0 mm 1 mps 744 mmHg 55%
    06:00 +19°C° 0 mm 2 mps 744 mmHg 56%
    07:00 +24°C° 0 mm 2 mps 744 mmHg 48%
    08:00 +27°C° 0 mm 2 mps 744 mmHg 40%
    09:00 +30°C° 0 mm 2 mps 744 mmHg 31%
    10:00 +32°C° 0 mm 2 mps 744 mmHg 27%
    11:00 +35°C° 0 mm 2 mps 744 mmHg 22%
    12:00 +37°C° 0 mm 2 mps 744 mmHg 18%
    13:00 +38°C° 0 mm 2 mps 743 mmHg 17%
    14:00 +38°C° 0 mm 3 mps 742 mmHg 16%
    15:00 +39°C° 0 mm 3 mps 742 mmHg 16%
    16:00 +37°C° 0 mm 4 mps 742 mmHg 20%
    17:00 +35°C° 0 mm 4 mps 741 mmHg 25%
    18:00 +34°C° 0 mm 5 mps 741 mmHg 29%
    19:00 +29°C° 0 mm 4 mps 741 mmHg 41%
    20:00 +26°C° 0 mm 3 mps 742 mmHg 53%
    21:00 +23°C° 0 mm 2 mps 742 mmHg 65%
    22:00 +22°C° 0 mm 1 mps 742 mmHg 68%
    23:00 +22°C° 0 mm 1 mps 742 mmHg 71%

    26 August, Monday

    Time Temperature Precipitation Wind Pressure Humidity
    00:00 +21°C° 0 mm 1 mps 742 mmHg 74%
    01:00 +21°C° 0 mm 1 mps 742 mmHg 75%
    02:00 +21°C° 0 mm 1 mps 742 mmHg 76%
    03:00 +20°C° 0 mm 2 mps 741 mmHg 77%
    04:00 +20°C° 0 mm 2 mps 741 mmHg 79%
    05:00 +19°C° 0 mm 2 mps 742 mmHg 82%
    06:00 +19°C° 0 mm 2 mps 742 mmHg 84%
    07:00 +23°C° 0 mm 2 mps 742 mmHg 73%
    08:00 +25°C° 0 mm 2 mps 742 mmHg 62%
    09:00 +28°C° 0 mm 2 mps 742 mmHg 51%
    10:00 +30°C° 0.1 mm 3 mps 742 mmHg 45%
    11:00 +33°C° 0.1 mm 3 mps 742 mmHg 40%
    12:00 +34°C° 0.1 mm 3 mps 742 mmHg 34%
    13:00 +34°C° 0.2 mm 4 mps 742 mmHg 33%
    14:00 +34°C° 0.2 mm 4 mps 741 mmHg 33%
    15:00 +35°C° 0.2 mm 4 mps 741 mmHg 32%
    16:00 +33°C° 0.3 mm 5 mps 741 mmHg 38%
    17:00 +32°C° 0.3 mm 5 mps 741 mmHg 44%
    18:00 +30°C° 0.3 mm 6 mps 741 mmHg 49%
    19:00 +28°C° 0.9 mm 5 mps 742 mmHg 57%
    20:00 +26°C° 0.9 mm 3 mps 743 mmHg 66%
    21:00 +24°C° 0.9 mm 2 mps 744 mmHg 74%
    22:00 +23°C° 0.2 mm 2 mps 744 mmHg 76%
    23:00 +23°C° 0.2 mm 1 mps 744 mmHg 78%

    27 August, Tuesday

    Time Temperature Precipitation Wind Pressure Humidity
    00:00 +22°C° 0.2 mm 1 mps 744 mmHg 80%
    01:00 +22°C° 0 mm 1 mps 744 mmHg 82%
    02:00 +21°C° 0 mm 1 mps 743 mmHg 85%
    03:00 +21°C° 0 mm 1 mps 743 mmHg 87%
    04:00 +21°C° 0 mm 1 mps 743 mmHg 87%
    05:00 +21°C° 0 mm 1 mps 743 mmHg 87%
    06:00 +21°C° 0 mm 1 mps 744 mmHg 87%
    07:00 +23°C° 0 mm 1 mps 744 mmHg 77%
    08:00 +25°C° 0 mm 2 mps 744 mmHg 66%
    09:00 +27°C° 0 mm 2 mps 745 mmHg 55%
    10:00 +29°C° 0 mm 2 mps 745 mmHg 48%
    11:00 +31°C° 0 mm 3 mps 745 mmHg 41%
    12:00 +34°C° 0 mm 3 mps 745 mmHg 34%
    13:00 +35°C° 0 mm 3 mps 744 mmHg 31%
    14:00 +36°C° 0 mm 3 mps 744 mmHg 28%
    15:00 +36°C° 0 mm 3 mps 743 mmHg 24%
    16:00 +36°C° 0 mm 3 mps 743 mmHg 25%
    17:00 +36°C° 0 mm 3 mps 743 mmHg 25%
    18:00 +35°C° 0 mm 3 mps 743 mmHg 25%
    19:00 +32°C° 0 mm 2 mps 743 mmHg 34%
    20:00 +29°C° 0 mm 2 mps 744 mmHg 42%
    21:00 +27°C° 0 mm 2 mps 744 mmHg 50%
    22:00 +26°C° 0 mm 2 mps 744 mmHg 54%
    23:00 +25°C° 0 mm 1 mps 744 mmHg 59%

    28 August, Wednesday

    Time Temperature Precipitation Wind Pressure Humidity
    00:00 +24°C° 0 mm 1 mps 745 mmHg 63%
    01:00 +24°C° 0 mm 1 mps 744 mmHg 63%
    02:00 +24°C° 0 mm 1 mps 744 mmHg 62%
    03:00 +23°C° 0 mm 1 mps 744 mmHg 62%
    04:00 +23°C° 0 mm 1 mps 744 mmHg 62%
    05:00 +23°C° 0 mm 1 mps 744 mmHg 62%
    06:00 +23°C° 0 mm 2 mps 745 mmHg 62%
    07:00 +26°C° 0 mm 2 mps 745 mmHg 52%
    08:00 +29°C° 0 mm 3 mps 745 mmHg 41%
    09:00 +33°C° 0 mm 3 mps 745 mmHg 31%
    10:00 +35°C° 0 mm 4 mps 745 mmHg 27%
    11:00 +36°C° 0 mm 4 mps 745 mmHg 24%
    12:00 +39°C° 0 mm 5 mps 745 mmHg 20%
    13:00 +40°C° 0 mm 5 mps 744 mmHg 20%
    14:00 +40°C° 0 mm 5 mps 744 mmHg 19%
    15:00 +40°C° 0 mm 6 mps 744 mmHg 18%
    16:00 +39°C° 0 mm 5 mps 743 mmHg 19%
    17:00 +37°C° 0 mm 5 mps 743 mmHg 21%
    18:00 +36°C° 0 mm 4 mps 743 mmHg 22%
    19:00 +33°C° 0 mm 4 mps 743 mmHg 29%
    20:00 +30°C° 0 mm 3 mps 744 mmHg 35%
    21:00 +27°C° 0 mm 3 mps 744 mmHg 41%
    22:00 +27°C° 0 mm 2 mps 744 mmHg 45%
    23:00 +26°C° 0 mm 2 mps 745 mmHg 49%
    Show more